Tracking 28790 objects as of 19-Apr-2024
HD Live streaming from Space Station
objects crossing your sky now

CZ-4 DEB

Track CZ-4 DEB now!
10-day predictions


NORAD ID: 20974
Int'l Code: 1990-081CG
Perigee: 788.4 km
Apogee: 811.0 km
Inclination: 98.5 °
Period: 100.7 minutes
Semi major axis: 7170 km
RCS: 0.0086 m2 (small)
Launch date: September 3, 1990
Source: People's Republic of China (PRC)
Launch site: Taiyaun Space Center, China (TSC)

Note: This is SATELLITE DEBRIS
Your satellite tracking list
Your tracking list is empty




NASA's NSSDC Master Catalog

Two Line Element Set (TLE):
1 20974U 90081CG  24109.93044319  .00005251  00000-0  20584-2 0  9993
2 20974  98.5308 108.7546 0015777 146.0698 278.6718 14.29742191736745
Source of the keplerian elements: AFSPC